Total_Precipitation_Accumulation
0.11 0.24 0.60 1.06 1.86 2.05 1.52 0.97 0.74 0.71 0.76 0.76 0.67 0.65 0.75 0.93 1.36 2.23 2.01 1.57 1.29 1.37 1.71 1.88 2.18 2.10 2.00 1.85 1.82 1.91 1.92 1.77 1.64 1.61 1.62 1.62 1.67 1.60 1.59 1.63 1.65 1.71 1.68 1.72 1.80 1.72 1.69 1.68 1.78
0.23 0.48 0.87 1.56 2.13 1.66 1.40 0.86 0.53 0.58 0.66 0.80 0.79 0.68 0.62 0.69 0.78 1.14 1.57 1.73 1.18 1.06 1.30 1.45 1.75 1.80 1.78 1.65 1.67 1.70 1.60 1.49 1.47 1.45 1.54 1.60 1.70 1.72 1.67 1.69 1.69 1.70 1.68 1.68 1.71 1.71 1.69 1.70 1.82
0.39 0.63 0.97 1.69 1.39 1.06 1.06 0.70 0.49 0.40 0.57 0.81 0.80 0.60 0.72 0.92 0.96 1.23 1.46 1.46 1.12 1.03 1.09 1.35 1.58 1.64 1.64 1.53 1.51 1.51 1.41 1.36 1.39 1.41 1.45 1.52 1.65 1.76 1.79 1.79 1.82 1.84 1.90 1.82 1.76 1.75 1.65 1.62 1.68
0.53 0.75 1.08 1.18 0.64 0.46 0.52 0.56 0.53 0.51 0.70 0.83 0.72 0.67 0.82 1.08 1.10 1.15 1.16 1.16 0.94 1.07 1.16 1.37 1.65 1.62 1.53 1.40 1.33 1.32 1.33 1.33 1.33 1.40 1.54 1.65 1.67 1.68 1.76 1.81 1.86 1.93 1.88 1.82 1.84 1.84 1.59 1.54 1.65
0.56 0.84 1.22 0.80 0.44 0.34 0.32 0.36 0.43 0.59 0.76 0.89 0.78 0.81 1.11 1.19 0.99 0.94 0.93 1.07 1.06 1.22 1.30 1.43 1.66 1.63 1.48 1.32 1.24 1.21 1.16 1.21 1.20 1.27 1.51 1.65 1.62 1.52 1.61 1.74 1.79 1.73 1.79 1.85 1.90 1.85 1.70 1.66 1.65
0.66 0.76 0.90 0.57 0.33 0.27 0.29 0.33 0.48 0.66 0.71 0.77 0.88 1.02 1.38 1.31 1.08 0.98 1.00 1.13 1.21 1.29 1.30 1.49 1.64 1.62 1.50 1.33 1.20 1.17 1.14 1.11 1.13 1.17 1.29 1.41 1.43 1.46 1.59 1.70 1.64 1.59 1.62 1.70 1.80 1.79 1.76 1.64 1.61
0.70 0.70 0.62 0.40 0.30 0.27 0.31 0.38 0.45 0.58 0.68 0.88 0.91 1.04 1.44 1.53 1.19 0.97 1.11 1.43 1.56 1.49 1.32 1.48 1.63 1.47 1.44 1.38 1.21 1.18 1.16 1.12 1.12 1.12 1.20 1.29 1.43 1.53 1.65 1.81 1.76 1.64 1.56 1.61 1.71 1.69 1.79 1.60 1.52
0.44 0.48 0.44 0.36 0.29 0.27 0.25 0.31 0.43 0.59 0.71 0.76 0.88 1.08 1.30 1.31 1.13 1.10 1.36 1.86 2.11 2.01 1.72 1.44 1.43 1.42 1.34 1.30 1.29 1.29 1.15 1.08 1.13 1.22 1.34 1.42 1.55 1.66 1.75 1.84 1.98 1.83 1.70 1.77 1.86 1.76 1.66 1.62 1.65
0.25 0.40 0.35 0.25 0.21 0.24 0.26 0.30 0.37 0.43 0.53 0.75 0.97 1.16 1.15 1.00 1.02 1.25 1.56 1.96 2.22 2.06 1.91 1.64 1.49 1.46 1.46 1.38 1.24 1.45 1.33 1.23 1.36 1.65 1.74 1.92 2.07 1.97 2.09 1.98 2.18 2.06 2.05 2.25 2.34 2.22 2.07 1.99 2.00
0.17 0.24 0.17 0.11 0.11 0.14 0.19 0.26 0.32 0.46 0.77 1.22 1.47 1.37 1.16 1.06 1.17 1.44 1.68 1.76 1.86 1.89 1.87 1.90 1.70 1.64 1.64 1.50 1.71 2.10 1.87 1.84 2.07 2.21 2.14 2.65 2.90 2.73 2.18 2.26 2.64 2.66 2.74 2.86 2.91 2.95 2.69 2.42 2.28
0.09 0.12 0.09 0.07 0.07 0.10 0.13 0.20 0.30 0.50 1.01 1.49 1.70 1.41 1.22 1.24 1.34 1.49 1.88 2.03 2.09 2.09 1.95 2.05 1.95 1.89 1.97 2.10 2.11 2.33 2.49 2.65 2.76 2.71 2.77 3.12 2.99 2.64 2.36 2.59 3.03 3.09 3.08 3.12 3.27 3.34 2.86 2.77 2.81
0.06 0.06 0.06 0.05 0.06 0.07 0.10 0.20 0.40 0.65 1.04 1.31 1.24 1.12 1.11 1.38 1.58 1.77 2.09 2.42 2.49 2.55 2.47 2.26 2.18 2.41 2.51 2.42 2.35 2.24 2.09 2.16 2.43 2.55 2.51 3.04 3.45 3.31 3.16 3.27 3.24 3.42 3.62 3.90 3.58 3.51 3.26 3.17 2.98
0.04 0.04 0.05 0.05 0.06 0.09 0.12 0.21 0.42 0.73 0.94 0.99 0.86 0.91 1.19 1.54 1.79 2.24 2.66 2.74 2.72 2.97 3.13 2.93 2.87 2.86 2.72 2.81 2.47 2.13 2.06 1.91 1.92 2.30 2.59 2.84 3.20 3.38 3.41 3.22 3.23 3.06 3.21 3.39 3.41 3.14 3.22 3.34 3.28
0.03 0.04 0.06 0.08 0.08 0.12 0.20 0.28 0.40 0.64 0.73 0.74 0.81 1.04 1.26 1.68 1.99 2.52 3.02 3.07 3.16 3.43 3.65 3.55 3.54 3.37 3.09 2.86 2.75 2.58 2.31 2.22 1.98 2.26 2.40 2.68 3.04 3.18 3.08 3.14 3.27 3.07 3.06 3.07 3.10 3.16 3.43 3.60 3.65
0.04 0.07 0.13 0.14 0.14 0.15 0.23 0.47 0.54 0.70 0.78 0.76 0.93 1.09 1.45 1.91 2.21 2.53 2.75 3.14 3.57 3.95 4.02 4.00 4.03 3.95 3.93 3.62 3.22 2.84 2.71 2.44 2.38 2.40 2.33 2.57 2.91 3.14 3.07 3.06 2.93 2.89 2.95 3.09 3.13 3.25 3.44 3.31 3.41
0.07 0.14 0.27 0.26 0.21 0.20 0.27 0.72 0.88 0.81 0.78 0.86 1.01 1.33 1.58 1.88 2.30 2.51 2.82 3.18 3.59 4.10 4.49 4.60 4.12 4.11 4.20 4.16 3.83 3.36 3.27 3.12 2.92 2.63 2.51 2.50 2.76 2.86 2.90 2.71 2.64 2.68 2.57 2.70 2.94 2.99 3.06 3.17 3.37
0.12 0.19 0.26 0.34 0.24 0.22 0.36 0.89 1.21 0.92 0.73 0.88 1.17 1.45 1.80 2.04 2.45 2.56 2.74 3.02 3.49 4.38 5.28 5.30 4.81 4.41 4.15 4.13 4.21 4.03 3.87 3.54 3.08 2.85 2.76 2.61 2.51 2.33 2.40 2.38 2.48 2.39 2.37 2.47 2.34 2.79 2.98 3.13 3.23
0.11 0.17 0.28 0.42 0.29 0.29 0.43 0.85 0.90 0.79 0.94 0.95 1.02 1.21 1.54 1.67 1.96 2.23 2.51 3.06 3.88 5.07 5.86 5.76 5.15 4.72 4.42 4.26 4.14 4.12 3.87 3.61 3.15 2.97 2.82 2.53 2.53 2.21 2.23 2.21 2.31 2.21 2.34 2.56 2.70 2.95 2.94 2.85 2.92
0.09 0.15 0.27 0.32 0.26 0.36 0.47 0.69 0.80 0.93 1.11 1.10 0.96 1.01 1.29 1.50 1.78 2.24 2.78 3.63 4.72 5.65 5.93 5.43 4.95 4.63 4.25 3.90 3.35 3.04 3.13 3.08 2.83 2.56 2.26 2.17 2.07 2.14 2.35 2.14 2.35 2.18 2.27 2.40 2.49 2.62 2.67 2.58 2.63
0.10 0.16 0.26 0.32 0.24 0.30 0.47 0.77 1.10 1.10 1.03 0.97 1.03 1.05 1.15 1.52 1.96 2.69 3.71 4.28 4.57 4.70 4.44 4.10 3.85 3.66 3.21 2.96 2.86 2.68 2.75 2.50 2.35 2.25 2.29 1.95 1.83 1.91 1.89 2.15 2.18 2.19 2.37 2.42 2.41 2.52 2.50 2.31 2.37
0.13 0.17 0.25 0.32 0.23 0.27 0.51 1.00 1.27 1.26 1.04 0.89 0.98 1.00 1.15 1.56 2.15 2.97 3.55 3.68 3.44 3.10 2.97 2.92 2.99 2.74 2.64 2.70 2.66 2.61 2.69 2.42 2.21 2.14 2.20 1.87 1.63 1.64 1.74 1.86 2.00 2.22 2.14 2.29 2.34 2.24 2.32 2.36 2.34
0.13 0.11 0.10 0.14 0.24 0.43 0.63 1.27 1.48 1.24 1.16 0.98 1.01 1.02 1.04 1.33 1.72 2.15 2.42 2.30 2.40 2.53 2.52 2.63 2.73 2.47 2.46 2.42 2.18 2.13 2.11 2.03 1.98 2.00 2.09 2.14 1.76 1.58 1.56 1.67 1.83 2.01 1.94 2.18 1.95 2.06 2.30 2.39 2.26
0.07 0.06 0.08 0.16 0.31 0.52 0.71 1.01 1.22 1.04 1.19 0.98 0.88 0.89 0.83 1.00 1.15 1.28 1.41 1.53 1.72 1.84 2.01 2.27 2.52 2.46 2.30 2.12 2.10 2.19 2.07 2.06 2.06 2.10 2.18 2.25 2.02 1.76 1.59 1.67 1.81 1.89 1.83 1.87 1.87 2.21 2.23 2.18 2.14
0.06 0.09 0.19 0.30 0.48 1.00 0.96 0.94 1.14 1.10 1.21 0.97 0.81 0.72 0.75 0.88 1.01 1.06 1.10 1.22 1.38 1.52 1.74 2.00 2.33 2.38 2.26 2.11 2.04 2.12 2.19 2.20 2.13 2.14 2.13 1.95 1.90 1.88 1.73 1.72 1.82 1.74 1.70 1.74 1.81 2.06 2.09 2.16 2.26
0.08 0.13 0.35 0.71 1.08 1.25 0.81 0.89 1.12 0.92 0.87 0.73 0.52 0.51 0.64 0.83 0.98 1.06 1.00 0.97 1.03 1.18 1.34 1.44 1.67 1.93 2.04 1.99 1.97 2.01 2.18 2.13 1.97 1.87 1.82 1.79 1.62 1.57 1.60 1.67 1.81 1.65 1.60 1.67 1.90 2.02 2.03 2.11 2.16
0.07 0.08 0.21 0.37 0.47 0.62 0.79 1.16 1.26 0.93 0.65 0.41 0.33 0.45 0.68 0.82 0.84 0.90 0.90 0.86 0.84 0.94 1.12 1.25 1.49 1.66 1.86 1.90 1.89 1.93 2.03 1.96 1.82 1.83 1.66 1.63 1.57 1.49 1.57 1.63 1.62 1.59 1.60 1.61 1.95 1.89 1.93 2.00 1.94
0.08 0.08 0.09 0.15 0.20 0.41 0.79 1.10 1.05 0.82 0.64 0.46 0.39 0.45 0.66 0.69 0.66 0.80 0.87 0.95 0.94 0.93 1.04 1.19 1.45 1.71 1.92 2.02 2.07 2.02 2.03 2.04 1.99 1.92 1.69 1.51 1.63 1.54 1.64 1.69 1.65 1.66 1.80 1.95 2.13 1.97 1.98 2.04 1.85
0.08 0.09 0.10 0.11 0.20 0.35 0.63 1.03 1.23 1.03 0.80 0.63 0.54 0.53 0.64 0.68 0.69 0.91 1.06 1.04 0.91 0.79 0.87 1.05 1.31 1.68 1.90 2.04 2.04 1.93 2.09 2.02 1.99 1.92 1.76 1.59 1.59 1.59 1.71 1.83 1.80 1.86 1.90 2.04 2.14 1.95 2.02 2.01 1.90
0.09 0.10 0.11 0.11 0.13 0.23 0.50 0.71 0.66 0.63 0.60 0.63 0.69 0.63 0.54 0.64 0.77 0.94 1.14 1.12 0.88 0.77 0.76 0.90 1.24 1.53 1.70 1.82 1.89 1.81 1.78 1.72 1.73 1.79 1.78 1.75 1.73 1.67 1.70 1.79 1.83 1.80 1.85 1.93 2.03 1.88 1.93 1.91 1.93
0.11 0.13 0.15 0.17 0.16 0.15 0.28 0.51 0.39 0.44 0.55 0.62 0.69 0.76 0.77 0.80 0.83 0.80 0.94 1.11 1.01 0.89 0.84 1.00 1.28 1.47 1.56 1.61 1.63 1.64 1.68 1.66 1.59 1.57 1.66 1.72 1.63 1.54 1.60 1.65 1.63 1.55 1.66 1.82 1.86 1.79 1.88 1.92 1.88